| time (UTC) | temp C | wind direction | speed KPH | gust KPH | rain 1hr cm | rain 24hr cm | rain mn cm | humidity % | barometer mb |
| 20260503203032 | 10 | 318 | 11.3 | 0.0 | 0.00 | 0.00 | 0.00 | 34 | 1011.0 |
| 20260503201507 | 9 | 288 | 9.7 | 0.0 | 0.00 | 0.00 | 0.00 | 35 | 1011.1 |
| 20260503200004 | 8 | 279 | 11.3 | 0.0 | 0.00 | 0.00 | 0.00 | 38 | 1011.1 |
| 20260503194501 | 8 | 337 | 9.7 | 0.0 | 0.00 | 0.00 | 0.00 | 39 | 1011.2 |
| 20260503193057 | 8 | 290 | 11.3 | 0.0 | 0.00 | 0.00 | 0.00 | 39 | 1011.5 |
| 20260503191553 | 8 | 340 | 8.0 | 0.0 | 0.00 | 0.00 | 0.00 | 40 | 1011.4 |
| 20260503190057 | 7 | 355 | 8.0 | 0.0 | 0.00 | 0.00 | 0.00 | 41 | 1011.6 |
| 20260503184545 | 7 | 281 | 8.0 | 0.0 | 0.00 | 0.00 | 0.00 | 41 | 1011.8 |
| 20260503183043 | 7 | 273 | 8.0 | 0.0 | 0.00 | 0.00 | 0.00 | 43 | 1012.0 |
| 20260503181538 | 7 | 355 | 9.7 | 0.0 | 0.00 | 0.00 | 0.00 | 43 | 1012.0 |
| 20260503180036 | 6 | 318 | 9.7 | 0.0 | 0.00 | 0.00 | 0.00 | 44 | 1012.1 |
| 20260503174528 | 6 | 332 | 8.0 | 0.0 | 0.00 | 0.00 | 0.00 | 47 | 1012.2 |
| 20260503173024 | 5 | 360 | 4.8 | 0.0 | 0.00 | 0.00 | 0.00 | 47 | 1012.5 |
| 20260503171520 | 5 | 267 | 1.6 | 0.0 | 0.00 | 0.00 | 0.00 | 50 | 1012.4 |
| 20260503081525 | 0 | 298 | 0.0 | 0.0 | 0.00 | 0.00 | 0.00 | 29 | 1012.5 |
| 20260503071501 | 0 | 298 | 0.0 | 0.0 | 0.00 | 0.00 | 0.00 | 22 | 1012.4 |
| 20260503060113 | -1 | 298 | 0.0 | 0.0 | 0.00 | 0.00 | 0.00 | 34 | 1013.0 |
| 20260503054601 | -1 | 298 | 0.0 | 0.0 | 0.00 | 0.00 | 0.00 | 35 | 1013.0 |
| 20260503053047 | -1 | 298 | 0.0 | 0.0 | 0.00 | 0.00 | 0.00 | 35 | 1013.0 |
| 20260503051545 | -1 | 298 | 0.0 | 0.0 | 0.00 | 0.00 | 0.00 | 37 | 1013.3 |
| 20260503050044 | -1 | 298 | 0.0 | 0.0 | 0.00 | 0.00 | 0.00 | 37 | 1013.6 |
| 20260503044542 | -1 | 298 | 0.0 | 0.0 | 0.00 | 0.00 | 0.00 | 41 | 1013.5 |
| 20260503043042 | -1 | 298 | 0.0 | 0.0 | 0.00 | 0.00 | 0.00 | 42 | 1013.5 |
| 20260503041545 | -1 | 298 | 0.0 | 0.0 | 0.00 | 0.00 | 0.00 | 45 | 1013.6 |
| 20260503040039 | -1 | 298 | 0.0 | 0.0 | 0.00 | 0.00 | 0.00 | 51 | 1013.6 |
| 20260503034535 | -1 | 298 | 0.0 | 0.0 | 0.00 | 0.00 | 0.03 | 54 | 1013.6 |
| 20260503033033 | 0 | 298 | 0.0 | 0.0 | 0.00 | 0.00 | 0.03 | 57 | 1013.7 |
| 20260503031526 | 0 | 298 | 0.0 | 0.0 | 0.00 | 0.00 | 0.03 | 60 | 1013.7 |
| 20260503030026 | 0 | 298 | 0.0 | 0.0 | 0.00 | 0.00 | 0.03 | 63 | 1013.7 |
| 20260503024520 | 0 | 298 | 0.0 | 0.0 | 0.00 | 0.00 | 0.03 | 65 | 1013.7 |
| 20260503023015 | 0 | 298 | 0.0 | 0.0 | 0.00 | 0.00 | 0.03 | 66 | 1013.8 |
| 20260503021511 | 1 | 298 | 0.0 | 0.0 | 0.00 | 0.00 | 0.03 | 66 | 1013.9 |
| 20260503020007 | 1 | 298 | 0.0 | 0.0 | 0.00 | 0.00 | 0.03 | 66 | 1013.8 |
| 20260503014506 | 1 | 298 | 0.0 | 0.0 | 0.00 | 0.00 | 0.03 | 65 | 1013.8 |
| 20260503013100 | 2 | 298 | 0.0 | 0.0 | 0.00 | 0.00 | 0.03 | 63 | 1013.7 |
| 20260503011557 | 2 | 298 | 0.0 | 0.0 | 0.00 | 0.00 | 0.03 | 62 | 1013.7 |
| 20260503010052 | 3 | 298 | 0.0 | 0.0 | 0.00 | 0.00 | 0.03 | 60 | 1013.5 |
| 20260503004550 | 3 | 298 | 0.0 | 0.0 | 0.00 | 0.00 | 0.03 | 58 | 1013.2 |
| 20260503003043 | 3 | 298 | 0.0 | 0.0 | 0.00 | 0.00 | 0.03 | 57 | 1013.1 |
| 20260503001540 | 4 | 298 | 0.0 | 0.0 | 0.00 | 0.00 | 0.03 | 56 | 1013.0 |
| 20260503000034 | 5 | 317 | 0.0 | 0.0 | 0.00 | 0.00 | 0.03 | 55 | 1012.9 |
| 20260502234547 | 5 | 315 | 3.2 | 0.0 | 0.00 | 0.00 | 0.03 | 53 | 1012.8 |
| 20260502233029 | 5 | 269 | 1.6 | 0.0 | 0.00 | 0.00 | 0.03 | 52 | 1012.7 |
| 20260502231526 | 5 | 288 | 4.8 | 0.0 | 0.00 | 0.00 | 0.03 | 51 | 1012.7 |
| 20260502230019 | 6 | 331 | 4.8 | 0.0 | 0.00 | 0.00 | 0.03 | 51 | 1012.7 |
| 20260502224517 | 6 | 286 | 1.6 | 0.0 | 0.00 | 0.00 | 0.03 | 51 | 1012.6 |
| 20260502223013 | 6 | 294 | 3.2 | 0.0 | 0.00 | 0.00 | 0.03 | 49 | 1012.5 |
| 20260502221508 | 6 | 260 | 3.2 | 0.0 | 0.00 | 0.00 | 0.03 | 48 | 1012.4 |
| 20260502220004 | 6 | 292 | 3.2 | 0.0 | 0.00 | 0.00 | 0.03 | 47 | 1012.3 |
| 20260502214502 | 6 | 284 | 3.2 | 0.0 | 0.00 | 0.00 | 0.03 | 46 | 1012.2 |
| 20260502213106 | 7 | 302 | 3.2 | 0.0 | 0.00 | 0.00 | 0.03 | 46 | 1012.3 |
| 20260502211554 | 6 | 277 | 3.2 | 0.0 | 0.00 | 0.00 | 0.03 | 49 | 1012.2 |
| 20260502210048 | 6 | 283 | 4.8 | 0.0 | 0.00 | 0.00 | 0.03 | 48 | 1012.2 |